Weather History for KRMG - March, 2014

Change the Weather History Date:

Monday, March 10, 2014

  Actual Average Record
Temperature  
Mean Temperature 55 °F 50 °F  
Max Temperature 72 °F 63 °F 81 °F (2009)
Min Temperature 37 °F 38 °F 27 °F (1998)
Degree Days  
Heating Degree Days 10 15  
Month to date heating degree days 163 160  
Since 1 July heating degree days 2990 2782  
Cooling Degree Days 0 0  
Month to date cooling degree days 0 0  
Year to date cooling degree days 0 0  
Growing Degree Days 4 (Base 50)    
Moisture  
Dew Point 43 °F    
Average Humidity 68    
Maximum Humidity 100    
Minimum Humidity 35    
Precipitation  
Precipitation 0.00 in 0.18 in 0.41 in (2011)
Month to date precipitation 1.10 1.75  
Year to date precipitation 8.78 11.44  
Snow  
Snow 0.00 in - - ()
Month to date snowfall 0.0  
Since 1 July snowfall T  
Snow Depth 0.00 in    
Sea Level Pressure  
Sea Level Pressure 30.02 in    
Wind  
Wind Speed 4 mph (SW)    
Max Wind Speed 16 mph    
Max Gust Speed 23 mph    
Visibility 9 miles    
Events      
T = Trace of Precipitation, MM = Missing Value Source: NWS Daily Summary

Daily Weather History Graph

Daily Weather History Graph

Search for Another Location

Airport or City:

Trip Planner

Search our weather history database for the weather conditions in past years. The results will help you decide how hot, cold, wet, or windy it might be!

Date:

Astronomy

Mar. 10, 2014 Rise Set
Actual Time 7:57 AM EDT 7:44 PM EDT
Civil Twilight 7:32 AM EDT 8:09 PM EDT
Nautical Twilight 7:03 AM EDT 8:38 PM EDT
Astronomical Twilight 6:34 AM EDT 9:07 PM EDT
Moon 2:37 PM EDT (3/10) 3:58 AM EDT (3/10)
Length of Visible Light 12h 36m
Length of Day
11h 46m
Waxing Gibbous, 70% of the Moon is Illuminated
Mar 10
Waxing Gibbous
Mar 16
Full
Mar 23
Last Quarter
Mar 30
New
Apr 7
First Quarter

Hourly Weather History & Observations

Time (EDT) Temp. Dew Point Humidity Pressure Visibility Wind Dir Wind Speed Gust Speed Precip Events Conditions
12:53 AM 46.9 °F 41.0 °F 80% 30.12 in 10.0 mi Calm Calm - N/A   Clear
1:53 AM 43.0 °F 39.9 °F 89% 30.12 in 10.0 mi Calm Calm - N/A   Clear
2:53 AM 43.0 °F 39.9 °F 89% 30.10 in 10.0 mi Calm Calm - N/A   Clear
3:53 AM 41.0 °F 39.0 °F 93% 30.09 in 9.0 mi Calm Calm - N/A   Clear
4:53 AM 39.9 °F 37.9 °F 93% 30.07 in 9.0 mi Calm Calm - N/A   Clear
5:53 AM 39.0 °F 37.9 °F 96% 30.07 in 9.0 mi Calm Calm - N/A   Clear
6:53 AM 37.0 °F 36.0 °F 96% 30.08 in 7.0 mi Calm Calm - N/A   Clear
7:53 AM 37.0 °F 37.0 °F 100% 30.09 in 8.0 mi Calm Calm - N/A   Mostly Cloudy
8:53 AM 43.0 °F 41.0 °F 93% 30.09 in 6.0 mi Calm Calm - N/A   Overcast
9:53 AM 50.0 °F 45.0 °F 83% 30.09 in 6.0 mi South 3.5 mph - N/A   Haze
10:53 AM 55.9 °F 46.0 °F 69% 30.08 in 6.0 mi SSW 5.8 mph - N/A   Haze
11:53 AM 62.1 °F 48.0 °F 60% 30.06 in 10.0 mi SSW 9.2 mph - N/A   Clear
12:53 PM 66.0 °F 46.9 °F 50% 30.04 in 10.0 mi West 6.9 mph - N/A   Clear
1:53 PM 69.1 °F 46.9 °F 45% 30.01 in 10.0 mi West 9.2 mph - N/A   Clear
2:53 PM 70.0 °F 46.9 °F 44% 29.97 in 10.0 mi West 11.5 mph 19.6 mph N/A   Clear
3:53 PM 72.0 °F 43.0 °F 35% 29.94 in 10.0 mi West 8.1 mph 20.7 mph N/A   Clear
4:53 PM 71.1 °F 45.0 °F 39% 29.92 in 10.0 mi West 9.2 mph 16.1 mph N/A   Clear
5:53 PM 70.0 °F 45.0 °F 41% 29.90 in 10.0 mi SW 10.4 mph 17.3 mph N/A   Clear
6:53 PM 69.1 °F 45.0 °F 42% 29.91 in 10.0 mi Variable 4.6 mph - N/A   Clear
7:53 PM 64.9 °F 44.1 °F 47% 29.91 in 10.0 mi WSW 3.5 mph - N/A   Clear
8:53 PM 57.0 °F 45.0 °F 64% 29.92 in 10.0 mi Calm Calm - N/A   Clear
9:53 PM 55.0 °F 45.0 °F 69% 29.92 in 10.0 mi SSW 3.5 mph - N/A   Clear
10:53 PM 53.1 °F 45.0 °F 74% 29.93 in 10.0 mi SSW 3.5 mph - N/A   Clear
11:53 PM 50.0 °F 45.0 °F 83% 29.93 in 10.0 mi Calm Calm - N/A   Clear